Total_Precipitation_Accumulation
2.03 2.21 2.51 3.00 3.82 4.61 5.34 5.50 5.88 5.48 4.87 4.33 3.91 3.81 3.67 3.36 3.24 3.11 3.09 3.03 2.82 2.76 3.01 2.87 3.00 2.81 2.87 2.86 2.93 3.22 3.35 2.98 3.03 3.50 3.15 2.54 2.11 2.13 2.02 2.06 2.14 2.12 2.15
2.10 2.45 2.97 3.36 3.41 3.97 4.72 4.80 4.54 4.39 3.98 3.65 3.51 3.36 3.34 3.00 2.82 2.71 2.88 2.71 2.60 2.72 2.73 2.88 2.73 2.66 2.83 2.84 2.91 3.18 3.12 2.81 2.98 3.47 3.65 3.14 2.74 2.38 1.94 1.97 2.01 2.05 2.28
1.94 2.36 2.76 3.21 3.20 3.60 3.72 3.39 3.27 3.38 3.35 3.21 3.15 3.06 3.10 2.91 2.69 2.57 2.66 2.52 2.33 2.40 2.47 2.43 2.48 2.62 2.38 2.64 2.92 3.04 3.05 2.97 2.87 3.08 3.59 3.44 3.10 2.70 2.27 2.07 2.15 2.31 2.46
1.40 1.68 2.00 2.42 2.64 2.76 2.68 2.66 2.67 2.76 2.98 3.00 2.82 2.70 2.49 2.43 2.41 2.35 2.44 2.50 2.25 2.13 2.15 2.16 2.36 2.48 2.45 2.75 2.46 2.60 2.86 3.06 2.86 2.86 2.86 2.92 3.18 3.21 2.78 2.38 2.21 2.29 2.41
1.10 1.23 1.31 1.52 1.81 2.07 2.16 2.17 2.51 2.65 2.69 2.71 2.71 2.78 2.52 2.39 2.38 2.52 2.76 2.70 2.36 2.01 1.85 1.98 2.21 2.37 2.45 2.57 2.50 2.62 2.62 2.65 2.67 2.74 2.74 2.89 3.14 2.97 2.87 2.72 2.47 2.35 2.19
0.86 1.05 1.08 1.10 1.24 1.39 1.55 1.71 2.07 2.34 2.42 2.37 2.38 2.45 2.50 2.54 2.38 2.37 2.49 2.43 2.28 2.07 1.87 1.91 2.18 2.27 2.37 2.44 2.48 2.48 2.41 2.50 2.57 2.61 2.64 2.84 2.89 2.86 2.93 2.74 2.55 2.41 2.13
0.69 0.87 0.86 0.89 1.01 1.05 1.17 1.43 1.71 1.90 1.99 2.05 2.12 2.20 2.42 2.42 2.24 2.07 2.17 2.22 2.09 2.00 2.00 1.96 2.29 2.43 2.42 2.37 2.49 2.48 2.43 2.55 2.62 2.63 2.64 2.66 2.63 2.70 2.91 2.92 2.63 2.43 2.18
0.64 0.69 0.64 0.65 0.79 0.88 1.00 1.20 1.38 1.50 1.62 1.83 2.04 2.05 2.19 2.06 1.97 2.17 2.06 1.96 1.78 1.87 2.13 2.25 2.27 2.28 2.32 2.30 2.61 2.43 2.43 2.54 2.55 2.41 2.81 2.76 2.59 2.86 3.11 3.28 3.35 2.97 2.68
0.60 0.62 0.57 0.57 0.61 0.68 0.81 1.06 1.38 1.41 1.42 1.54 1.79 1.87 1.84 1.87 1.99 2.23 2.16 1.99 1.93 1.84 2.07 2.22 2.31 2.26 2.27 2.43 2.69 2.62 2.64 2.75 2.62 2.62 2.92 2.83 2.70 2.79 2.95 3.28 3.60 3.62 3.28
0.68 0.73 0.62 0.63 0.64 0.65 0.78 0.91 1.11 1.34 1.51 1.47 1.48 1.48 1.73 1.81 1.94 2.05 1.96 1.95 1.96 2.02 2.12 2.12 2.15 2.13 2.11 2.27 2.67 2.67 2.69 2.89 2.84 2.81 2.87 2.85 2.72 2.83 2.85 3.01 3.39 3.70 3.70
0.65 0.73 0.58 0.59 0.61 0.70 0.78 0.92 1.06 1.32 1.49 1.37 1.39 1.52 1.68 1.78 1.85 2.01 2.00 1.96 2.00 2.10 2.13 2.12 2.13 2.06 1.96 2.08 2.33 2.41 2.63 2.76 2.82 2.79 2.85 2.84 2.98 3.01 2.89 2.99 3.14 3.40 3.60
0.72 0.78 0.72 0.82 0.85 0.94 0.97 1.02 1.10 1.27 1.38 1.38 1.46 1.56 1.66 1.72 1.79 1.88 2.00 2.06 2.04 2.14 2.19 2.20 2.16 1.98 1.97 2.10 2.20 2.32 2.53 2.67 2.75 2.88 3.01 2.77 2.92 3.04 2.96 2.97 2.97 3.13 3.44
0.87 0.87 0.94 1.07 1.04 1.05 1.17 1.19 1.24 1.30 1.42 1.55 1.58 1.55 1.59 1.58 1.66 1.81 1.91 2.04 2.10 2.17 2.27 2.29 2.21 2.15 2.20 2.28 2.34 2.43 2.57 2.64 2.69 2.82 2.82 2.76 2.92 2.79 2.88 2.98 2.92 2.93 2.97
0.93 0.88 0.96 1.04 1.08 1.16 1.30 1.40 1.39 1.35 1.41 1.47 1.54 1.60 1.63 1.68 1.79 1.90 1.98 2.05 2.06 2.12 2.13 2.10 2.19 2.26 2.30 2.34 2.37 2.36 2.38 2.43 2.49 2.47 2.38 2.33 2.37 2.43 2.65 2.65 2.64 2.74 2.84
0.93 0.90 0.95 1.03 1.20 1.26 1.24 1.28 1.32 1.35 1.49 1.54 1.51 1.61 1.76 1.76 1.80 1.83 1.86 1.92 1.95 1.89 2.07 2.10 2.19 2.28 2.24 2.11 2.22 2.26 2.20 2.36 2.27 2.12 2.07 2.07 2.16 2.21 2.30 2.17 2.29 2.52 2.59
0.94 0.97 1.07 1.19 1.21 1.14 1.15 1.16 1.11 1.20 1.41 1.54 1.63 1.73 1.75 1.68 1.77 1.80 1.82 1.84 1.90 1.98 2.05 2.08 2.21 2.28 2.11 2.18 2.23 2.28 2.28 2.30 2.21 2.16 2.09 1.95 1.98 1.99 2.01 1.99 2.03 2.20 2.33
0.89 0.99 1.09 1.13 1.16 1.23 1.24 1.13 1.02 1.13 1.44 1.56 1.60 1.82 1.92 1.83 1.90 1.92 1.92 1.91 1.95 2.11 2.17 2.27 2.33 2.27 2.38 2.36 2.18 2.22 2.17 2.19 2.22 2.24 2.22 1.90 1.71 1.91 1.87 1.99 1.94 1.87 1.94
0.78 0.88 0.95 0.99 1.04 1.10 1.12 1.10 1.10 1.15 1.42 1.65 1.77 2.06 2.23 2.08 2.07 2.10 2.10 2.14 2.24 2.29 2.37 2.40 2.32 2.29 2.39 2.40 2.07 2.01 1.93 1.99 2.07 2.11 2.16 2.17 2.07 2.08 2.13 2.17 2.10 1.95 1.89
0.79 0.83 0.93 1.02 1.14 1.28 1.28 1.26 1.35 1.47 1.65 1.84 2.00 2.27 2.51 2.62 2.56 2.39 2.45 2.54 2.53 2.48 2.55 2.61 2.59 2.47 2.51 2.39 2.02 1.90 1.79 1.89 1.95 2.00 2.00 2.03 1.94 2.01 1.95 1.91 1.87 1.83 1.75
0.83 0.99 1.15 1.18 1.26 1.46 1.46 1.48 1.61 1.85 2.01 2.00 2.03 2.25 2.52 2.64 2.61 2.57 2.74 2.84 2.74 2.63 2.67 2.57 2.45 2.33 2.34 2.32 1.98 1.79 1.68 1.80 1.88 1.97 1.94 1.92 1.83 1.82 1.70 1.60 1.62 1.55 1.57
0.88 0.94 0.98 1.12 1.27 1.41 1.55 1.74 1.82 1.95 2.04 2.11 2.11 2.22 2.46 2.76 2.72 2.76 2.83 2.90 2.88 2.88 2.87 2.78 2.64 2.45 2.37 2.39 2.08 1.87 1.69 1.75 1.80 1.72 1.70 1.71 1.72 1.53 1.46 1.44 1.41 1.43 1.48
0.93 0.99 0.95 1.05 1.25 1.46 1.70 1.84 1.89 1.97 2.12 2.16 2.15 2.21 2.48 2.61 2.65 2.82 2.89 2.99 3.10 3.07 3.03 3.01 2.77 2.68 2.58 2.31 2.03 1.86 1.81 1.85 1.86 1.79 1.75 1.76 1.68 1.44 1.36 1.22 1.17 1.26 1.25
1.06 1.15 1.19 1.18 1.31 1.49 1.72 1.94 2.00 2.02 1.97 1.96 1.98 2.10 2.28 2.39 2.55 2.67 2.62 2.69 2.83 2.78 2.78 2.76 2.66 2.69 2.79 2.60 2.16 1.86 1.77 1.81 1.83 1.92 2.00 1.82 1.67 1.54 1.40 1.36 1.31 1.22 1.13
1.25 1.29 1.41 1.43 1.44 1.53 1.71 1.89 1.92 1.92 1.91 1.87 1.87 2.02 2.25 2.38 2.46 2.52 2.49 2.54 2.58 2.63 2.68 2.69 2.61 2.62 2.76 2.73 2.40 2.06 1.84 1.75 1.69 1.70 1.71 1.62 1.57 1.50 1.37 1.32 1.23 1.09 1.11
1.28 1.29 1.44 1.53 1.52 1.56 1.73 1.86 1.91 1.98 2.01 1.98 1.97 2.11 2.22 2.30 2.46 2.53 2.55 2.56 2.54 2.52 2.52 2.49 2.42 2.44 2.54 2.59 2.39 2.07 1.88 1.79 1.75 1.70 1.67 1.64 1.65 1.55 1.45 1.37 1.33 1.35 1.36
1.37 1.43 1.52 1.56 1.52 1.52 1.66 1.81 2.00 2.18 2.23 2.15 2.12 2.11 2.10 2.19 2.20 2.22 2.19 2.16 2.10 2.11 2.08 2.06 1.98 1.95 2.12 2.14 1.85 1.69 1.72 1.73 1.71 1.59 1.58 1.64 1.67 1.61 1.55 1.51 1.45 1.46 1.47